This is the latest recevied weather packets stored in our database for station/object K0VSC-1. If no packets are shown the sender has not sent any weather packets the latest 10 day(s).
| Time | Temp. | Humidity | Pressure | Rain* | Wind** | Luminosity | Snow |
|---|---|---|---|---|---|---|---|
| 1777815791 | 11.67° C | 57% | 1007.4 hPa | 0 mm | - | 380 W/m² | - |
| 1777815491 | 11.67° C | 58% | 1007.4 hPa | 0 mm | - | 360 W/m² | - |
| 1777815191 | 11.67° C | 59% | 1007.4 hPa | 0 mm | - | 332 W/m² | - |
| 1777814891 | 11.67° C | 60% | 1007.2 hPa | 0 mm | - | 308 W/m² | - |
| 1777814591 | 11.11° C | 60% | 1007.3 hPa | 0 mm | - | 265 W/m² | - |
| 1777814291 | 11.11° C | 61% | 1007.2 hPa | 0 mm | - | 220 W/m² | - |
| 1777813991 | 10.56° C | 61% | 1007.2 hPa | 0 mm | - | 186 W/m² | - |
| 1777813691 | 10.56° C | 62% | 1007.2 hPa | 0 mm | - | 183 W/m² | - |
| 1777813391 | 10.56° C | 62% | 1007.2 hPa | 0 mm | - | 186 W/m² | - |
| 1777813091 | 10° C | 63% | 1007 hPa | 0 mm | - | 193 W/m² | - |
| 1777812791 | 10° C | 63% | 1007 hPa | 0 mm | - | 199 W/m² | - |
| 1777812491 | 10° C | 64% | 1006.9 hPa | 0 mm | - | 186 W/m² | - |
| 1777812191 | 10° C | 64% | 1006.9 hPa | 0 mm | - | 165 W/m² | - |
| 1777811891 | 10° C | 64% | 1006.8 hPa | 0 mm | - | 148 W/m² | - |
| 1777811591 | 9.44° C | 64% | 1006.7 hPa | 0 mm | - | 141 W/m² | - |
| 1777811291 | 9.44° C | 65% | 1006.7 hPa | 0 mm | - | 142 W/m² | - |
| 1777810991 | 9.44° C | 66% | 1006.6 hPa | 0 mm | - | 141 W/m² | - |
| 1777810691 | 8.89° C | 66% | 1006.5 hPa | 0 mm | - | 134 W/m² | - |
| 1777810391 | 8.89° C | 66% | 1006.5 hPa | 0 mm | - | 120 W/m² | - |
| 1777810091 | 8.33° C | 66% | 1006.4 hPa | 0 mm | - | 98 W/m² | - |
| 1777809791 | 8.33° C | 66% | 1006.3 hPa | 0 mm | - | 46 W/m² | - |
| 1777809491 | 8.33° C | 66% | 1006.2 hPa | 0 mm | - | 26 W/m² | - |
| 1777809191 | 8.33° C | 66% | 1006.1 hPa | 0 mm | - | 23 W/m² | - |
| 1777808891 | 8.33° C | 66% | 1006 hPa | 0 mm | - | 21 W/m² | - |
| 1777808591 | 8.33° C | 67% | 1005.9 hPa | 0 mm | - | 19 W/m² | - |
* Rain latest hour (hover to see other rain measurements)
** Current wind speed in m/s (hover to see current wind gust speed)